Fairbanks, AK

5:21 AM AKST on December 03, 2016 (GMT -0900)
Fairbanks International

Weather History for PAFA - December, 2010

Change the Weather History Date:

Friday, December 31, 2010

  Actual Average Record
Temperature  
Mean Temperature 9 °F -7 °F  
Max Temperature 19 °F 2 °F 41 °F (2012)
Min Temperature -2 °F -16 °F -59 °F (1912)
Degree Days  
Heating Degree Days 56 72  
Month to date heating degree days 2558 2141  
Since 1 July heating degree days 6101 6272  
Cooling Degree Days 0 0  
Month to date cooling degree days 0 0  
Year to date cooling degree days 66 61  
Moisture  
Dew Point 4 °F    
Average Humidity 83    
Maximum Humidity 91    
Minimum Humidity 76    
Precipitation  
Precipitation 0.09 in 0.02 in 0.28 in (1905)
Month to date precipitation 0.27 0.64  
Year to date precipitation 10.35 10.81  
Snow  
Snow 1.60 in 0.40 in 15.00 in (2004)
Month to date snowfall 4.1 12.1  
Since 1 July snowfall 23.4 37.9  
Snow Depth 13.00 in    
Sea Level Pressure  
Sea Level Pressure 29.39 in    
Wind  
Wind Speed 5 mph (East)    
Max Wind Speed 8 mph    
Max Gust Speed -    
Visibility 7 miles    
Events Snow    
T = Trace of Precipitation, MM = Missing Value Source: NWS Daily Summary

Daily Weather History Graph

Daily Weather History Graph

Search for Another Location

Airport or City:

Trip Planner

Search our weather history database for the weather conditions in past years. The results will help you decide how hot, cold, wet, or windy it might be!

Date:

Astronomy

Dec. 31, 2010 Rise Set
Actual Time 10:55 AM AKST 2:54 PM AKST
Civil Twilight 9:33 AM AKST 4:16 PM AKST
Nautical Twilight 8:22 AM AKST 5:27 PM AKST
Astronomical Twilight 7:21 AM AKST 6:28 PM AKST
Moon 7:42 AM AKST (12/31) 11:37 AM AKST (12/31)
Length of Visible Light 6h 43m
Length of Day
3h 58m
Waning Crescent, 13% of the Moon is Illuminated
Dec 31
Waning Crescent
Jan 4
New
Jan 12
First Quarter
Jan 19
Full
Jan 26
Last Quarter

Hourly Weather History & Observations

Time (AKST) Temp. Windchill Dew Point Humidity Pressure Visibility Wind Dir Wind Speed Gust Speed Precip Events Conditions
12:53 AM 10.0 °F 0.4 °F 3.9 °F 76% 29.34 in 10.0 mi NNE 5.8 mph - N/A   Mostly Cloudy
1:53 AM 9.0 °F 0.6 °F 3.9 °F 80% 29.32 in 10.0 mi NE 4.6 mph - N/A   Mostly Cloudy
2:53 AM 10.9 °F 0.2 °F 6.1 °F 81% 29.30 in 10.0 mi NE 6.9 mph - N/A   Overcast
3:53 AM 12.0 °F 2.7 °F 7.0 °F 80% 29.25 in 10.0 mi NE 5.8 mph - N/A   Overcast
4:53 AM 14.0 °F 5.1 °F 9.0 °F 80% 29.24 in 10.0 mi NE 5.8 mph - 0.04 in   Overcast
5:53 AM 14.0 °F 5.1 °F 9.0 °F 80% 29.21 in 10.0 mi NE 5.8 mph - N/A   Overcast
6:53 AM 14.0 °F 5.1 °F 9.0 °F 80% 29.18 in 10.0 mi NNE 5.8 mph - N/A   Mostly Cloudy
7:53 AM 17.1 °F 8.7 °F 10.9 °F 77% 29.18 in 10.0 mi NE 5.8 mph - N/A   Overcast
8:53 AM 16.0 °F - 10.9 °F 81% 29.16 in 10.0 mi Calm Calm - N/A   Mostly Cloudy
9:53 AM 18.0 °F 11.1 °F 12.0 °F 78% 29.18 in 10.0 mi SW 4.6 mph - N/A   Mostly Cloudy
10:53 AM 10.0 °F 0.4 °F 6.1 °F 84% 29.21 in 10.0 mi NE 5.8 mph - N/A   Mostly Cloudy
11:53 AM 10.0 °F 3.6 °F 7.0 °F 87% 29.23 in 10.0 mi SSW 3.5 mph - N/A   Mostly Cloudy
12:53 PM 6.1 °F -6.8 °F 1.9 °F 83% 29.27 in 10.0 mi SSW 8.1 mph - N/A   Mostly Cloudy
1:53 PM 6.1 °F -5.6 °F 1.9 °F 83% 29.32 in 10.0 mi South 6.9 mph - N/A   Mostly Cloudy
2:53 PM 6.1 °F -6.8 °F 1.9 °F 83% 29.39 in 10.0 mi SSW 8.1 mph - 0.00 in Snow Light Snow
3:05 PM 6.8 °F -4.8 °F 1.4 °F 79% 29.37 in 1.5 mi SSW 6.9 mph - 0.00 in Snow Light Snow
3:24 PM 6.8 °F -3.5 °F 1.4 °F 79% 29.38 in 1.5 mi SSW 5.8 mph - 0.00 in Snow Light Snow
3:39 PM 6.8 °F -0.1 °F 3.2 °F 85% 29.40 in 0.8 mi SSW 3.5 mph - 0.01 in Snow Light Snow
3:53 PM 7.0 °F -1.7 °F 3.0 °F 84% 29.45 in 0.8 mi SSW 4.6 mph - 0.03 in Snow Light Snow
4:14 PM 6.8 °F - 3.2 °F 85% 29.43 in 1.5 mi Calm Calm - 0.00 in Snow Light Snow
4:46 PM 6.8 °F -0.1 °F 3.2 °F 85% 29.46 in 2.0 mi South 3.5 mph - 0.02 in Snow Light Snow
4:53 PM 7.0 °F - 3.9 °F 87% 29.50 in 2.0 mi Calm Calm - 0.02 in Snow Light Snow
5:09 PM 6.8 °F - 3.2 °F 85% 29.47 in 3.0 mi Calm Calm - 0.00 in Snow Light Snow
5:35 PM 6.8 °F -0.1 °F 3.2 °F 85% 29.49 in 2.5 mi SSE 3.5 mph - 0.00 in Snow Light Snow
5:53 PM 7.0 °F 0.1 °F 3.0 °F 84% 29.54 in 4.0 mi SE 3.5 mph - 0.00 in Snow Light Snow
6:02 PM 6.8 °F - 3.2 °F 85% 29.51 in 7.0 mi Calm Calm - 0.00 in Snow Light Snow
6:53 PM -0.0 °F - -2.0 °F 91% 29.58 in 8.0 mi Calm Calm - 0.00 in Snow Light Snow
7:53 PM 1.0 °F - -2.0 °F 87% 29.61 in 9.0 mi Calm Calm - 0.00 in Snow Light Snow
8:53 PM -0.9 °F -11.0 °F -4.0 °F 87% 29.63 in 9.0 mi NNE 4.6 mph - 0.00 in Snow Light Snow
9:53 PM 3.0 °F -6.4 °F -0.0 °F 87% 29.64 in 9.0 mi North 4.6 mph - 0.00 in Snow Light Snow
10:53 PM 6.1 °F -2.8 °F 1.9 °F 83% 29.66 in 9.0 mi NNW 4.6 mph - 0.00 in Snow Light Snow
11:53 PM 5.0 °F -2.1 °F 1.0 °F 84% 29.67 in 10.0 mi NNW 3.5 mph - 0.00 in Snow Light Snow